Forside
METAR-TAF:

METAR-TAF

Lufthavne :

Pella Municipal Airport

Pella, Iowa, USA

Breddekreds: 41-24N, længdekreds: 092-56W, højde: 270 m

Aktuelle vejr

Denne rapport blev lavet for 7 minutter siden, kl. 17:55 UTC
Vind 12 kt fra østsydøst med vindstød på up til 18 kt
Temperatur -10°C
Fugtighed 61%
Tryk 1025 hPa
Sigt: 16.1 km
skyfri

METAR: KPEA 211755Z AUTO 12012G18KT 10SM CLR M10/M16 A3027 RMK AO2 T11051163 11105 21150

Tid: 12:02 (18:02 UTC)


TAF: fraværende

Vejrobservationer og prognoser fra mere end 4000 lufthavne (METAR og TAF).

De gule og røde prikker repræsenterer de meteorologiske stationer.

Flyt musen over at se navnet på stationen.

Så klik over at se vejr observationer og prognoser.

At skifte det kort: Klik på de grønne knapper med et sort kors for at zoome ind; på den grønne knap med en bindestreg for at zoome ud; eller på de grønne pile for tilstødende kort.


METAR-TAF: